This is the latest recevied weather packets stored in our database for station/object WA6OOO. If no packets are shown the sender has not sent any weather packets the latest 10 day(s).
| Time | Temp. | Humidity | Pressure | Rain* | Wind** | Luminosity | Snow |
|---|---|---|---|---|---|---|---|
| 1777536370 | 12.78° C | 92% | 1017.7 hPa | 0 mm | - | 0 W/m² | - |
| 1777536066 | 13.33° C | 93% | 1017.7 hPa | 0 mm | - | 0 W/m² | - |
| 1777535762 | 12.78° C | 93% | 1017.5 hPa | 0 mm | - | 0 W/m² | - |
| 1777535459 | 12.78° C | 94% | 1017.8 hPa | 0 mm | - | 0 W/m² | - |
| 1777535156 | 13.33° C | 94% | 1017.7 hPa | 0 mm | - | 0 W/m² | - |
| 1777534852 | 13.33° C | 94% | 1017.7 hPa | 0 mm | - | 0 W/m² | - |
| 1777534549 | 13.33° C | 94% | 1017.7 hPa | 0 mm | - | 0 W/m² | - |
| 1777534247 | 13.33° C | 94% | 1017.7 hPa | 0 mm | - | 0 W/m² | - |
| 1777533945 | 12.78° C | 94% | 1017.7 hPa | 0 mm | - | 0 W/m² | - |
| 1777533642 | 12.78° C | 94% | 1017.8 hPa | 0 mm | - | 0 W/m² | - |
| 1777533337 | 13.33° C | 94% | 1017.7 hPa | 0 mm | - | 0 W/m² | - |
| 1777533034 | 13.33° C | 94% | 1017.7 hPa | 0 mm | - | 0 W/m² | - |
| 1777532732 | 12.78° C | 94% | 1017.8 hPa | 0 mm | - | 0 W/m² | - |
| 1777532427 | 13.33° C | 94% | 1017.8 hPa | 0 mm | - | 0 W/m² | - |
| 1777532125 | 13.33° C | 93% | 1017.9 hPa | 0 mm | - | 0 W/m² | - |
| 1777531820 | 13.33° C | 93% | 1018 hPa | 0 mm | - | 0 W/m² | - |
| 1777531516 | 12.78° C | 92% | 1018.1 hPa | 0 mm | - | 0 W/m² | - |
| 1777531214 | 12.22° C | 92% | 1018 hPa | 0 mm | - | 0 W/m² | - |
| 1777530912 | 12.78° C | 92% | 1018 hPa | 0 mm | - | 0 W/m² | - |
| 1777530609 | 12.78° C | 92% | 1018 hPa | 0 mm | - | 0 W/m² | - |
| 1777530306 | 13.33° C | 92% | 1018 hPa | 0 mm | - | 0 W/m² | - |
| 1777530002 | 13.33° C | 92% | 1018.2 hPa | 0 mm | - | 0 W/m² | - |
| 1777529699 | 13.33° C | 92% | 1018.2 hPa | 0 mm | - | 0 W/m² | - |
| 1777529395 | 13.33° C | 92% | 1018.3 hPa | 0 mm | - | 0 W/m² | - |
| 1777529092 | 13.89° C | 92% | 1018.2 hPa | 0 mm | - | 0 W/m² | - |
* Rain latest hour (hover to see other rain measurements)
** Current wind speed in m/s (hover to see current wind gust speed)